Location: B?ogocice
(50.2413°N, 20.2361°E)
Time: 16:18:14
(UTC+00:00)

SAR-Lupe-4 - Pass Details

Date: 13 September 2024
Orbit: 476 x 483 km, 98.1° (Epoch: 03 October)

Event Time Altitude Azimuth Distance (km) Brightness Sun altitude
Rises 03:28:15 0° 1° (N) 2,559 7.5 -7.7°
Reaches altitude 10° 03:30:46 10° 343° (NNW) 1,672 6.3 -7.3°
Maximum altitude 03:33:18 19° 298° (WNW) 1,229 5.2 -7.0°
Drops below altitude 10° 03:35:49 10° 253° (WSW) 1,660 5.6 -6.6°
Enters shadow 03:36:18 - 248° (WSW) 1,808 5.8 -6.5°
